AAL202 KCLT-KLAX

Flight info

Callsign AAL202
Flight time N/A
Altitude 34000
Route SYI079062 IRW J6 DRK J231 HIPPI GABBL HLYWD1 KLAX
Aircraft A321/M-SDE3FGHIRWY/LB1

Departure

Time N/A
Airport Charlotte Douglas International Airport (KCLT)

Arrival

Time 2026-05-04 07:02
Airport Los Angeles International Airport (KLAX)
Time Latitude Longitude Altitude Speed Heading
2026-05-04 06:33 34.17771 -115.62411 33872 ft 345 kts 254°
2026-05-04 06:34 34.16646 -115.68174 33878 ft 346 kts 256°
2026-05-04 06:36 34.13573 -115.97831 33894 ft 348 kts 259°
2026-05-04 06:37 34.12978 -116.03878 33902 ft 347 kts 259°
2026-05-04 06:37 34.12381 -116.09899 33916 ft 348 kts 259°
2026-05-04 06:38 34.11786 -116.15941 33909 ft 347 kts 259°
2026-05-04 06:40 34.09719 -116.36306 30658 ft 349 kts 259°
2026-05-04 06:40 34.09400 -116.39269 30522 ft 351 kts 259°
2026-05-04 06:40 34.09081 -116.42263 30260 ft 352 kts 259°
2026-05-04 06:40 34.08761 -116.45208 30004 ft 353 kts 259°
2026-05-04 06:41 34.08435 -116.48262 29734 ft 355 kts 259°
2026-05-04 06:41 34.08107 -116.51306 29454 ft 355 kts 259°
2026-05-04 06:41 34.07776 -116.54388 28985 ft 355 kts 259°
2026-05-04 06:41 34.07460 -116.57340 28827 ft 340 kts 259°
2026-05-04 06:42 34.07152 -116.60321 28619 ft 337 kts 259°
2026-05-04 06:42 34.06884 -116.63192 28130 ft 337 kts 260°
2026-05-04 06:42 34.06619 -116.66051 27630 ft 338 kts 260°
2026-05-04 06:44 34.04778 -116.85872 24090 ft 322 kts 259°
2026-05-04 06:44 34.04511 -116.88634 23620 ft 319 kts 258°
2026-05-04 06:44 34.04165 -116.91326 23248 ft 313 kts 257°
2026-05-04 06:45 34.03832 -116.93930 22841 ft 310 kts 257°
2026-05-04 06:45 34.03493 -116.96594 22399 ft 307 kts 257°
2026-05-04 06:45 34.03144 -116.99247 21952 ft 304 kts 257°
2026-05-04 06:45 34.02814 -117.01812 21515 ft 302 kts 258°
2026-05-04 06:46 34.02491 -117.04359 21097 ft 301 kts 257°
2026-05-04 06:46 34.02192 -117.06896 20667 ft 299 kts 258°
2026-05-04 06:46 34.01892 -117.09451 20202 ft 299 kts 258°
2026-05-04 06:46 34.01589 -117.12016 19749 ft 298 kts 258°
2026-05-04 06:48 33.99456 -117.29918 16479 ft 302 kts 259°
2026-05-04 06:48 33.99147 -117.32519 15981 ft 304 kts 259°
2026-05-04 06:49 33.98838 -117.35132 15480 ft 305 kts 259°
2026-05-04 06:50 33.98054 -117.53309 12480 ft 304 kts 279°
2026-05-04 06:51 33.98544 -117.55885 12003 ft 305 kts 279°
2026-05-04 06:51 33.99044 -117.58477 11518 ft 306 kts 279°
2026-05-04 06:51 33.99537 -117.61061 11065 ft 306 kts 280°
2026-05-04 06:51 34.00025 -117.63643 10586 ft 307 kts 280°
2026-05-04 06:52 34.00501 -117.66180 10229 ft 302 kts 278°
2026-05-04 06:52 34.00737 -117.68673 10038 ft 291 kts 268°
2026-05-04 06:52 34.00631 -117.71119 9860 ft 281 kts 262°
2026-05-04 06:52 34.00402 -117.73532 9533 ft 278 kts 261°
2026-05-04 06:53 34.00160 -117.75943 9157 ft 277 kts 261°
2026-05-04 06:53 33.99920 -117.78334 8768 ft 277 kts 261°
2026-05-04 06:53 33.99684 -117.80735 8410 ft 275 kts 261°
2026-05-04 06:53 33.99451 -117.83110 8021 ft 275 kts 261°
2026-05-04 06:54 33.99217 -117.85487 7610 ft 276 kts 262°
2026-05-04 06:54 33.98984 -117.87867 7250 ft 275 kts 262°
2026-05-04 06:54 33.98755 -117.90203 6870 ft 275 kts 262°
2026-05-04 06:54 33.98523 -117.92575 6591 ft 271 kts 262°
2026-05-04 06:55 33.98293 -117.94901 6314 ft 267 kts 263°
2026-05-04 06:55 33.98072 -117.97170 6049 ft 258 kts 262°
2026-05-04 06:55 33.97853 -117.99413 5794 ft 253 kts 262°
2026-05-04 06:55 33.97647 -118.01612 5533 ft 248 kts 263°
2026-05-04 06:56 33.97485 -118.03742 5313 ft 243 kts 263°
2026-05-04 06:57 33.96118 -118.17491 3430 ft 207 kts 262°
2026-05-04 06:58 33.95935 -118.19223 3154 ft 200 kts 261°
2026-05-04 06:58 33.95757 -118.20909 2878 ft 194 kts 262°
2026-05-04 06:58 33.95588 -118.22521 2670 ft 185 kts 261°
2026-05-04 06:58 33.95431 -118.24029 2505 ft 170 kts 261°
2026-05-04 06:59 33.95285 -118.25426 2234 ft 161 kts 261°
2026-05-04 06:59 33.95148 -118.26742 1979 ft 152 kts 262°
2026-05-04 06:59 33.95020 -118.27983 1752 ft 142 kts 261°
2026-05-04 06:59 33.94896 -118.29183 1563 ft 140 kts 261°
2026-05-04 07:01 33.94042 -118.37260 366 ft 138 kts 266°
2026-05-04 07:01 33.93946 -118.38399 153 ft 136 kts 261°
2026-05-04 07:02 33.93828 -118.39532 113 ft 134 kts 259°
2026-05-04 07:02 33.93747 -118.40299 123 ft 48 kts 263°
2026-05-04 07:02 33.93712 -118.40683 127 ft 45 kts 265°
2026-05-04 07:02 33.93743 -118.40903 127 ft 17 kts 341°
2026-05-04 07:03 33.93793 -118.40917 127 ft 0 kts 351°
2026-05-04 07:03 33.93797 -118.40918 127 ft 1 kts 350°
2026-05-04 07:03 33.93830 -118.40920 127 ft 9 kts 12°
2026-05-04 07:03 33.93871 -118.40857 127 ft 10 kts 74°
2026-05-04 07:04 33.93882 -118.40775 127 ft 9 kts 83°
2026-05-04 07:04 33.93890 -118.40699 126 ft 9 kts 83°
2026-05-04 07:04 33.93899 -118.40618 126 ft 10 kts 83°
2026-05-04 07:04 33.93923 -118.40551 125 ft 6 kts 18°
2026-05-04 07:05 33.93942 -118.40547 125 ft 0 kts
2026-05-04 07:05 33.93945 -118.40548 125 ft 0 kts 334°
2026-05-04 07:05 33.93946 -118.40555 125 ft 1 kts 271°
2026-05-04 07:05 33.93946 -118.40560 125 ft 1 kts 274°
2026-05-04 07:06 33.93959 -118.40598 125 ft 0 kts 313°
2026-05-04 07:06 33.93963 -118.40603 125 ft 0 kts 317°